, AK

(GMT )
Denali Park

Weather History for PAIN - December, 2013

Change the Weather History Date:

Wednesday, December 4, 2013

  Actual Average Record
Temperature  
Mean Temperature 9 °F -  
Max Temperature 17 °F 8 °F 44 °F (2002)
Min Temperature 1 °F -10 °F -42 °F (1970)
Degree Days  
Heating Degree Days 56    
Moisture  
Dew Point 7 °F    
Average Humidity 93    
Maximum Humidity 100    
Minimum Humidity 85    
Precipitation  
Precipitation 0.00 in - - ()
Sea Level Pressure  
Sea Level Pressure 30.40 in    
Wind  
Wind Speed 0 mph (SSW)    
Max Wind Speed 4 mph    
Max Gust Speed -    
Visibility 10 miles    
Events      
Averages and records for this station are not official NWS values.
T = Trace of Precipitation, MM = Missing Value Source: NWS Daily Summary

Daily Weather History Graph

Daily Weather History Graph

Search for Another Location

Airport or City:

Trip Planner

Search our weather history database for the weather conditions in past years. The results will help you decide how hot, cold, wet, or windy it might be!

Date:

Astronomy

Dec. 04, 2013 Rise Set
Actual Time 10:17 AM AKST 3:14 PM AKST
Civil Twilight 9:06 AM AKST 4:24 PM AKST
Nautical Twilight 8:01 AM AKST 5:30 PM AKST
Astronomical Twilight 7:03 AM AKST 6:28 PM AKST
Moon 11:31 AM AKST (12/4) 6:03 PM AKST (12/4)
Length of Visible Light 7h 17m
Length of Day
4h 57m
Waxing Crescent, 5% of the Moon is Illuminated
Dec 4
Waxing Crescent
Dec 9
First Quarter
Dec 17
Full
Dec 25
Last Quarter
Jan 1
New

Hourly Weather History & Observations

Time (AKST) Temp. Windchill Dew Point Humidity Pressure Visibility Wind Dir Wind Speed Gust Speed Precip Events Conditions
12:16 AM 17.6 °F - 15.8 °F 93% 30.43 in 10.0 mi Calm Calm - N/A   Overcast
12:36 AM 15.8 °F - 15.8 °F 100% 30.43 in 10.0 mi Calm Calm - N/A   Overcast
12:56 AM 15.8 °F - 12.2 °F 86% 30.43 in 10.0 mi Calm Calm - N/A   Mostly Cloudy
1:16 AM 12.2 °F - 12.2 °F 100% 30.44 in 10.0 mi Calm Calm - N/A   Partly Cloudy
1:36 AM 12.2 °F - 12.2 °F 100% 30.44 in 10.0 mi Calm Calm - N/A   Mostly Cloudy
1:56 AM 12.2 °F - 12.2 °F 100% 30.43 in 10.0 mi Calm Calm - N/A   Overcast
2:16 AM 12.2 °F - 12.2 °F 100% 30.43 in 10.0 mi Calm Calm - N/A   Overcast
2:36 AM 12.2 °F - 12.2 °F 100% 30.43 in 10.0 mi Calm Calm - N/A   Overcast
2:56 AM 12.2 °F - 12.2 °F 100% 30.43 in 10.0 mi Calm Calm - N/A   Overcast
3:16 AM 12.2 °F - 12.2 °F 100% 30.42 in 10.0 mi Calm Calm - N/A   Overcast
3:36 AM 14.0 °F - 12.2 °F 93% 30.43 in 10.0 mi Calm Calm - N/A   Overcast
3:56 AM 14.0 °F - 10.4 °F 86% 30.43 in 10.0 mi Calm Calm - N/A   Overcast
4:16 AM 12.2 °F - 10.4 °F 92% 30.43 in 10.0 mi Calm Calm - N/A   Overcast
4:36 AM 14.0 °F - 12.2 °F 93% 30.43 in 10.0 mi Calm Calm - N/A   Overcast
4:56 AM 14.0 °F - 12.2 °F 93% 30.43 in 10.0 mi Calm Calm - N/A   Overcast
5:16 AM 14.0 °F - 10.4 °F 86% 30.43 in 10.0 mi Calm Calm - N/A   Overcast
5:36 AM 14.0 °F - 10.4 °F 86% 30.42 in 10.0 mi Calm Calm - N/A   Overcast
5:56 AM 14.0 °F - 12.2 °F 93% 30.42 in 10.0 mi Calm Calm - N/A   Overcast
6:16 AM 14.0 °F - 12.2 °F 93% 30.42 in 10.0 mi Calm Calm - N/A   Overcast
6:36 AM 14.0 °F - 12.2 °F 93% 30.42 in 10.0 mi Calm Calm - N/A   Overcast
6:56 AM 14.0 °F - 12.2 °F 93% 30.42 in 10.0 mi Calm Calm - N/A   Overcast
7:16 AM 12.2 °F - 10.4 °F 92% 30.42 in 10.0 mi Calm Calm - N/A   Mostly Cloudy
7:36 AM 10.4 °F - 8.6 °F 92% 30.42 in 10.0 mi Calm Calm - N/A   Clear
7:56 AM 8.6 °F - 6.8 °F 92% 30.42 in 10.0 mi Calm Calm - N/A   Clear
8:16 AM 8.6 °F - 6.8 °F 92% 30.42 in 10.0 mi Calm Calm - N/A   Clear
8:36 AM 6.8 °F - 5.0 °F 92% 30.41 in 10.0 mi Calm Calm - N/A   Clear
8:56 AM 5.0 °F - 3.2 °F 92% 30.41 in 10.0 mi Calm Calm - N/A   Clear
9:16 AM 5.0 °F - 3.2 °F 92% 30.42 in 10.0 mi Calm Calm - N/A   Clear
9:36 AM 5.0 °F - 3.2 °F 92% 30.42 in 10.0 mi Calm Calm - N/A   Clear
9:56 AM 3.2 °F - 3.2 °F 100% 30.42 in 10.0 mi Calm Calm - N/A   Clear
10:16 AM 3.2 °F - 1.4 °F 92% 30.42 in 10.0 mi Calm Calm - N/A   Clear
10:36 AM 3.2 °F - 1.4 °F 92% 30.43 in 10.0 mi Calm Calm - N/A   Clear
10:56 AM 3.2 °F - 1.4 °F 92% 30.43 in 10.0 mi Calm Calm - N/A   Clear
11:16 AM 1.4 °F - -0.4 °F 92% 30.43 in 10.0 mi Calm Calm - N/A   Clear
11:36 AM 3.2 °F - 1.4 °F 92% 30.43 in 10.0 mi Calm Calm - N/A   Clear
11:56 AM 3.2 °F -4.2 °F 1.4 °F 92% 30.43 in 10.0 mi SSW 3.5 mph - N/A   Clear
12:16 PM 3.2 °F - 1.4 °F 92% 30.42 in 10.0 mi Calm Calm - N/A   Clear
12:36 PM 3.2 °F - 1.4 °F 92% 30.42 in 10.0 mi Calm Calm - N/A   Clear
12:56 PM 5.0 °F - 3.2 °F 92% 30.41 in 10.0 mi Calm Calm - N/A   Clear
1:16 PM 5.0 °F - 3.2 °F 92% 30.41 in 10.0 mi Calm Calm - N/A   Clear
1:36 PM 5.0 °F - 3.2 °F 92% 30.41 in 10.0 mi Calm Calm - N/A   Clear
1:56 PM 5.0 °F - 3.2 °F 92% 30.41 in 10.0 mi Calm Calm - N/A   Clear
2:16 PM 5.0 °F - 1.4 °F 85% 30.40 in 10.0 mi Calm Calm - N/A   Clear
2:36 PM 3.2 °F - 1.4 °F 92% 30.41 in 10.0 mi Calm Calm - N/A   Clear
2:56 PM 3.2 °F - 1.4 °F 92% 30.40 in 10.0 mi Calm Calm - N/A   Clear
3:16 PM 3.2 °F - 1.4 °F 92% 30.40 in 10.0 mi Calm Calm - N/A   Clear
3:36 PM 5.0 °F - 3.2 °F 92% 30.39 in 10.0 mi Calm Calm - N/A   Partly Cloudy
3:56 PM 5.0 °F - 3.2 °F 92% 30.39 in 10.0 mi Calm Calm - N/A   Clear
4:16 PM 3.2 °F - 1.4 °F 92% 30.38 in 10.0 mi Calm Calm - N/A   Clear
4:36 PM 3.2 °F - 3.2 °F 100% 30.38 in 10.0 mi Calm Calm - N/A   Clear
4:56 PM 3.2 °F - 1.4 °F 92% 30.38 in 10.0 mi Calm Calm - N/A   Partly Cloudy
5:16 PM 3.2 °F - 1.4 °F 92% 30.37 in 10.0 mi Calm Calm - N/A   Scattered Clouds
5:36 PM 3.2 °F - 1.4 °F 92% 30.38 in 10.0 mi Calm Calm - N/A   Clear
5:56 PM 3.2 °F - 3.2 °F 100% 30.37 in 10.0 mi Calm Calm - N/A   Clear
6:16 PM 5.0 °F - 3.2 °F 92% 30.37 in 10.0 mi Calm Calm - N/A   Clear
6:36 PM 5.0 °F - 3.2 °F 92% 30.37 in 10.0 mi Calm Calm - N/A   Partly Cloudy
6:56 PM 5.0 °F - 3.2 °F 92% 30.36 in 10.0 mi Calm Calm - N/A   Scattered Clouds
7:16 PM 6.8 °F - 5.0 °F 92% 30.36 in 10.0 mi Calm Calm - N/A   Scattered Clouds
7:36 PM 6.8 °F - 6.8 °F 100% 30.36 in 10.0 mi Calm Calm - N/A   Clear
7:56 PM 8.6 °F - 6.8 °F 92% 30.36 in 10.0 mi Calm Calm - N/A   Scattered Clouds
8:16 PM 8.6 °F - 6.8 °F 92% 30.36 in 10.0 mi Calm Calm - N/A   Partly Cloudy
8:36 PM 8.6 °F - 8.6 °F 100% 30.36 in 10.0 mi Calm Calm - N/A   Scattered Clouds
8:56 PM 10.4 °F - 8.6 °F 92% 30.35 in 10.0 mi Calm Calm - N/A   Overcast
9:16 PM 10.4 °F - 8.6 °F 92% 30.35 in 10.0 mi Calm Calm - N/A   Overcast
9:36 PM 10.4 °F - 10.4 °F 100% 30.34 in 10.0 mi Calm Calm - N/A   Overcast
9:56 PM 10.4 °F - 10.4 °F 100% 30.33 in 10.0 mi Calm Calm - N/A   Overcast
10:16 PM 12.2 °F - 10.4 °F 92% 30.33 in 10.0 mi Calm Calm - N/A   Overcast
10:36 PM 12.2 °F - 10.4 °F 92% 30.33 in 10.0 mi Calm Calm - N/A   Overcast
10:56 PM 12.2 °F - 12.2 °F 100% 30.32 in 10.0 mi Calm Calm - N/A   Mostly Cloudy
11:16 PM 14.0 °F - 12.2 °F 93% 30.33 in 10.0 mi Calm Calm - N/A   Mostly Cloudy
11:36 PM 14.0 °F - 12.2 °F 93% 30.33 in 10.0 mi Calm Calm - N/A   Overcast
11:56 PM 15.8 °F - 12.2 °F 86% 30.33 in 10.0 mi Calm Calm - N/A   Overcast